TAPIOLES Weather Reports


time (UTC)temp
C
wind
direction
speed
KPH
gust
KPH
rain 1hr
cm
rain 24hr
cm
rain mn
cm
humidity
%
barometer
mb
20260506174503 13 114 16.1 22.5 0.00 0.10 0.00 90 1015.3
20260506173004 13 123 17.7 24.1 0.00 0.10 0.00 88 1015.1
20260506171504 13 126 17.7 29.0 0.00 0.10 0.00 86 1014.9
20260506170004 13 129 16.1 29.0 0.00 0.10 0.00 86 1015.0
20260506164504 13 132 22.5 29.0 0.00 0.10 0.00 87 1014.6
20260506163004 13 126 16.1 22.5 0.00 0.10 0.00 86 1014.6
20260506161504 14 104 20.9 33.8 0.00 0.10 0.00 82 1014.5
20260506160004 15 79 17.7 29.0 0.00 0.10 0.00 80 1014.1
20260506154504 15 74 12.9 22.5 0.00 0.10 0.00 78 1014.1
20260506153005 15 90 17.7 24.1 0.00 0.10 0.00 78 1013.9
20260506151506 15 77 11.3 32.2 0.00 0.10 0.00 76 1013.4
20260506144504 17 85 12.9 25.7 0.00 0.10 0.00 75 1013.6
20260506143005 17 92 16.1 24.1 0.00 0.10 0.00 77 1013.3
20260506141504 17 96 20.9 27.4 0.00 0.10 0.00 74 1013.4
20260506140004 17 90 19.3 25.7 0.00 0.10 0.00 78 1013.7
20260506134503 17 82 12.9 24.1 0.00 0.10 0.00 77 1013.9
20260506130007 16 102 17.7 27.4 0.00 0.10 0.00 77 1014.1
20260506124505 17 113 11.3 27.4 0.00 0.10 0.00 77 1014.5
20260506123006 18 130 16.1 24.1 0.00 0.10 0.00 68 1014.4
20260506121505 18 115 12.9 22.5 0.00 0.10 0.00 70 1014.4
20260506120006 18 150 9.7 22.5 0.00 0.10 0.00 69 1014.6
20260506113006 18 115 1.6 14.5 0.00 0.10 0.00 59 1014.5
20260506110006 17 140 11.3 14.5 0.00 0.10 0.00 64 1014.9
20260506104506 18 112 3.2 17.7 0.00 0.10 0.00 61 1015.0
20260506103006 17 112 6.4 17.7 0.00 0.10 0.00 63 1015.0
20260506101505 17 88 3.2 11.3 0.00 0.10 0.00 65 1015.2
20260506100005 16 166 0.0 6.4 0.00 0.10 0.00 63 1015.3
20260506093006 15 130 3.2 9.7 0.00 0.10 0.00 71 1015.2
20260506091505 15 130 8.0 11.3 0.00 0.10 0.00 74 1015.3
20260506090006 16 123 4.8 11.3 0.00 0.10 0.00 71 1015.1
20260506084506 16 90 6.4 12.9 0.00 0.10 0.00 71 1014.9
20260506083006 15 214 3.2 9.7 0.00 0.10 0.00 73 1015.0
20260506081505 15 283 3.2 6.4 0.00 0.10 0.00 85 1014.7
20260506073006 11 285 1.6 6.4 0.00 0.10 0.00 99 1014.5
20260506071505 10 265 0.0 6.4 0.00 0.10 0.00 99 1014.8
20260506044505 6 264 1.6 3.2 0.00 0.10 0.00 99 1014.0
20260506043005 6 302 0.0 3.2 0.00 0.10 0.00 99 1013.4
20260506041505 6 337 0.0 3.2 0.00 0.10 0.00 99 1013.5
20260506034506 6 284 0.0 3.2 0.00 0.10 0.00 99 1013.5
20260506033005 7 350 1.6 6.4 0.00 0.10 0.00 99 1013.6
20260506031505 7 283 3.2 3.2 0.00 0.10 0.00 99 1013.4
20260506030006 7 181 0.0 3.2 0.00 0.10 0.00 99 1013.5
20260506023006 7 269 0.0 3.2 0.00 0.10 0.00 99 1013.3
20260506020005 7 286 1.6 3.2 0.00 0.10 0.00 99 1013.3
20260506013005 8 354 1.6 6.4 0.00 0.10 0.00 99 1013.6
20260506011505 8 303 1.6 3.2 0.00 0.10 0.00 99 1013.5
20260506010005 8 295 1.6 3.2 0.00 0.10 0.00 99 1013.7
20260506004505 8 273 0.0 3.2 0.00 0.10 0.00 99 1013.6
20260506003005 8 301 0.0 3.2 0.00 0.10 0.00 99 1013.7
20260506001505 8 302 3.2 6.4 0.00 0.10 0.00 99 1014.0
20260506000006 8 357 1.6 6.4 0.00 0.10 0.00 99 1014.0
20260505234504 8 309 4.8 6.4 0.00 0.10 0.00 99 1014.1
20260505231505 9 264 0.0 3.2 0.00 0.10 0.00 99 1014.2
20260505230005 9 315 0.0 3.2 0.00 0.10 0.00 99 1014.2
20260505224505 9 328 0.0 6.4 0.00 0.10 0.00 99 1014.2
20260505223005 10 357 3.2 6.4 0.00 0.10 0.00 99 1014.3
20260505221504 10 292 0.0 3.2 0.00 0.10 0.00 99 1014.4
20260505214505 10 294 1.6 3.2 0.00 0.13 0.10 99 1014.8
20260505213005 10 284 1.6 3.2 0.00 0.15 0.10 99 1014.8
20260505211504 10 91 1.6 3.2 0.00 0.36 0.10 99 1014.9
20260505210005 10 270 0.0 3.2 0.00 0.64 0.10 99 1014.9
20260505204505 11 240 0.0 6.4 0.00 0.66 0.10 99 1014.6
20260505203005 11 233 0.0 3.2 0.00 0.66 0.10 99 1014.1
20260505200005 11 305 0.0 6.4 0.03 0.66 0.10 99 1014.2
20260505194505 11 358 1.6 3.2 0.05 0.66 0.10 99 1014.1
20260505193005 11 311 0.0 3.2 0.10 0.66 0.10 98 1013.9
20260505190005 11 336 1.6 11.3 0.05 0.64 0.05 95 1013.4
20260505184505 12 339 4.8 17.7 0.03 0.61 0.03 91 1013.4
20260505183005 14 76 1.6 6.4 0.00 0.56 0.00 96 1013.3
20260505181504 14 117 8.0 14.5 0.00 0.56 0.00 96 1013.3